FW9568 Weather Reports


time (UTC)temp
C
wind
direction
speed
KPH
gust
KPH
rain 1hr
cm
rain 24hr
cm
rain mn
cm
humidity
%
barometer
mb
20260505170003 4 103 3.2 11.3 0.00 0.00 0.00 86 1014.0
20260505165403 4 111 3.2 6.4 0.00 0.00 0.00 86 1014.1
20260505164716 4 98 3.2 11.3 0.00 0.00 0.00 86 1014.0
20260505163819 4 93 4.8 9.7 0.00 0.00 0.00 85 1014.0
20260505162703 5 97 3.2 8.0 0.00 0.00 0.00 85 1013.9
20260505161803 5 110 3.2 9.7 0.00 0.00 0.00 84 1013.9
20260505160903 5 101 3.2 6.4 0.00 0.00 0.00 83 1014.0
20260505160217 5 91 3.2 6.4 0.00 0.00 0.00 82 1013.9
20260505152703 5 93 3.2 9.7 0.00 0.00 0.00 82 1013.8
20260505151803 5 94 3.2 9.7 0.00 0.00 0.00 82 1013.7
20260505150903 5 95 3.2 11.3 0.00 0.00 0.00 82 1013.8
20260505124503 5 79 1.6 6.4 0.00 0.00 0.00 81 1013.1
20260505123603 5 70 0.0 3.2 0.00 0.00 0.00 81 1013.2
20260505122703 5 66 1.6 4.8 0.00 0.00 0.00 81 1013.0
20260505122016 5 172 0.0 4.8 0.00 0.00 0.00 80 1012.7
20260505120903 5 76 3.2 8.0 0.00 0.00 0.00 79 1012.4
20260505120004 5 91 3.2 6.4 0.00 0.00 0.00 79 1012.1
20260505115619 5 93 3.2 6.4 0.00 0.00 0.00 78 1011.8
20260505114718 6 75 3.2 6.4 0.00 0.00 0.00 78 1012.0
20260505113603 6 101 1.6 4.8 0.00 0.00 0.00 76 1011.8
20260505112703 6 104 1.6 4.8 0.00 0.00 0.00 76 1011.7
20260505111803 6 103 1.6 3.2 0.00 0.00 0.00 77 1011.8
20260505110903 6 99 1.6 4.8 0.00 0.00 0.00 77 1011.6
20260505101803 7 101 1.6 3.2 0.00 0.00 0.00 77 1011.8
20260505100903 7 101 1.6 3.2 0.00 0.00 0.00 77 1011.8
20260505100003 7 101 0.0 3.2 0.00 0.00 0.00 76 1011.8
20260505095618 7 101 0.0 4.8 0.00 0.00 0.00 76 1011.8
20260505094717 7 108 1.6 4.8 0.00 0.00 0.00 76 1011.8
20260505093603 7 26 0.0 3.2 0.00 0.00 0.00 76 1011.8
20260505092703 7 26 0.0 1.6 0.00 0.00 0.00 74 1011.8
20260505091803 8 0 0.0 1.6 0.00 0.00 0.00 74 1011.8
20260505090903 8 26 0.0 1.6 0.00 0.00 0.00 73 1011.9
20260505090003 8 37 0.0 3.2 0.00 0.00 0.00 72 1011.9
20260505085403 8 66 0.0 3.2 0.00 0.00 0.00 73 1011.6
20260505084503 8 34 0.0 3.2 0.00 0.00 0.00 74 1011.9
20260505083603 8 339 0.0 4.8 0.00 0.00 0.00 75 1012.0
20260505082703 8 287 1.6 6.4 0.00 0.00 0.00 76 1012.2
20260505081803 8 286 0.0 3.2 0.00 0.00 0.00 78 1012.3
20260505080903 8 286 0.0 3.2 0.00 0.00 0.00 79 1012.3
20260505080003 8 286 0.0 1.6 0.00 0.00 0.00 79 1012.2
20260505075403 8 0 0.0 1.6 0.00 0.00 0.00 79 1012.2
20260505074503 8 286 0.0 4.8 0.00 0.00 0.00 78 1012.4
20260505073603 8 283 1.6 4.8 0.00 0.00 0.00 79 1012.4
20260505072703 8 301 1.6 4.8 0.00 0.00 0.00 79 1012.4
20260505072018 8 302 1.6 6.4 0.00 0.00 0.00 79 1012.3
20260505070903 8 293 1.6 6.4 0.00 0.00 0.00 78 1012.4
20260505070003 9 300 1.6 4.8 0.00 0.00 0.00 78 1012.4
20260505065403 9 305 1.6 6.4 0.00 0.00 0.00 78 1012.4
20260505064503 9 310 1.6 3.2 0.00 0.00 0.00 77 1012.3
20260505063603 9 304 1.6 4.8 0.00 0.00 0.00 76 1012.4
20260505062703 10 288 1.6 3.2 0.00 0.00 0.00 75 1012.5
20260505061803 10 281 0.0 4.8 0.00 0.00 0.00 73 1012.4
20260505060903 10 284 1.6 6.4 0.00 0.00 0.00 73 1012.7
20260505060004 10 303 1.6 8.0 0.00 0.00 0.00 72 1012.6
20260505055403 10 301 3.2 9.7 0.00 0.00 0.00 70 1012.7
20260505054503 10 296 3.2 11.3 0.00 0.00 0.00 69 1012.6
20260505053603 10 293 3.2 11.3 0.00 0.00 0.00 68 1012.4
20260505052703 10 307 3.2 11.3 0.00 0.00 0.00 67 1012.5
20260505051803 10 296 3.2 6.4 0.00 0.00 0.00 66 1012.4
20260505050903 10 289 4.8 14.5 0.00 0.00 0.00 66 1012.3
20260505040903 11 294 3.2 9.7 0.00 0.00 0.00 64 1011.8
20260505040004 11 285 3.2 11.3 0.00 0.00 0.00 63 1011.8
20260505035403 11 290 3.2 12.9 0.00 0.00 0.00 62 1011.9
20260505034503 11 296 3.2 12.9 0.00 0.00 0.00 62 1011.9
20260505033603 11 295 3.2 11.3 0.00 0.00 0.00 62 1011.9
20260505032703 11 299 1.6 6.4 0.00 0.00 0.00 61 1011.8
20260505031803 11 295 4.8 12.9 0.00 0.00 0.00 61 1011.4
20260505030903 11 292 4.8 12.9 0.00 0.00 0.00 60 1011.1
20260505030216 11 288 4.8 16.1 0.00 0.00 0.00 58 1010.8
20260505025403 11 294 4.8 14.5 0.00 0.00 0.00 57 1010.7
20260505024719 12 307 3.2 14.5 0.00 0.00 0.00 57 1010.8
20260505023603 12 296 6.4 16.1 0.00 0.00 0.00 56 1011.1
20260505022917 12 293 4.8 14.5 0.00 0.00 0.00 56 1010.7
20260505021803 12 312 3.2 14.5 0.00 0.00 0.00 55 1010.7
20260505021116 12 298 4.8 16.1 0.00 0.00 0.00 54 1010.7
20260505020215 12 288 8.0 17.7 0.00 0.00 0.00 54 1011.2
20260505015619 12 288 8.0 24.1 0.00 0.00 0.00 55 1011.1
20260505014503 12 296 8.0 22.5 0.00 0.00 0.00 54 1010.7
20260505013603 13 291 11.3 22.5 0.00 0.00 0.00 56 1010.1
20260505012917 13 286 12.9 27.4 0.00 0.00 0.00 51 1010.0
20260505011803 15 284 12.9 27.4 0.00 0.00 0.00 45 1010.0
20260505010903 15 286 9.7 27.4 0.00 0.00 0.00 42 1009.7
20260505010003 16 31 3.2 16.1 0.00 0.00 0.00 41 1009.3
20260505005403 16 71 4.8 16.1 0.00 0.00 0.00 40 1009.1
20260505004718 16 10 4.8 12.9 0.00 0.00 0.00 39 1009.1
20260505003603 17 53 1.6 11.3 0.00 0.00 0.00 33 1008.9
20260505002703 18 290 1.6 6.4 0.00 0.00 0.00 33 1008.8
20260505001803 18 298 0.0 3.2 0.00 0.00 0.00 32 1009.0
20260505001119 18 302 1.6 4.8 0.00 0.00 0.00 32 1008.8
20260505000003 18 289 1.6 6.4 0.00 0.00 0.00 32 1008.6
20260504235403 18 54 1.6 6.4 0.00 0.00 0.00 32 1008.4
20260504234503 18 42 1.6 6.4 0.00 0.00 0.00 32 1008.0
20260504233603 18 284 1.6 9.7 0.00 0.00 0.00 32 1007.9
20260504232703 18 17 1.6 4.8 0.00 0.00 0.00 32 1008.0
20260504232016 18 60 1.6 4.8 0.00 0.00 0.00 33 1008.1
20260504230903 18 346 1.6 8.0 0.00 0.00 0.00 32 1008.1
20260504230003 18 324 1.6 8.0 0.00 0.00 0.00 34 1007.9
20260504225403 18 289 4.8 14.5 0.00 0.00 0.00 33 1008.0
20260504224503 18 281 9.7 20.9 0.00 0.00 0.00 33 1008.2
20260504223817 18 284 9.7 19.3 0.00 0.00 0.00 34 1008.3
20260504222703 18 291 11.3 20.9 0.00 0.00 0.00 32 1008.4
20260504221803 18 284 12.9 22.5 0.00 0.00 0.00 32 1008.4
20260504220903 18 295 9.7 22.5 0.00 0.00 0.00 32 1008.2
20260504220003 18 284 14.5 29.0 0.00 0.00 0.00 32 1008.2
20260504215403 20 284 11.3 29.0 0.00 0.00 0.00 30 1007.5
20260504214503 21 289 3.2 14.5 0.00 0.00 0.00 22 1007.5
20260504213603 21 192 0.0 4.8 0.00 0.00 0.00 22 1007.6
20260504212703 22 102 0.0 3.2 0.00 0.00 0.00 21 1007.3
20260504211803 22 86 3.2 8.0 0.00 0.00 0.00 21 1007.4
20260504211118 22 104 1.6 9.7 0.00 0.00 0.00 20 1007.6
20260504210003 22 77 1.6 8.0 0.00 0.00 0.00 21 1007.6
20260504205403 22 58 1.6 4.8 0.00 0.00 0.00 19 1007.6
20260504204503 23 259 1.6 6.4 0.00 0.00 0.00 18 1007.7
20260504203603 23 219 3.2 8.0 0.00 0.00 0.00 20 1007.9
20260504202703 23 257 1.6 9.7 0.00 0.00 0.00 24 1008.0
20260504201803 22 260 4.8 12.9 0.00 0.00 0.00 22 1008.2
20260504200903 22 250 4.8 12.9 0.00 0.00 0.00 23 1008.4
20260504200003 23 250 3.2 14.5 0.00 0.00 0.00 22 1008.3
20260504195403 22 217 3.2 6.4 0.00 0.00 0.00 21 1008.6
20260504194503 22 115 1.6 4.8 0.00 0.00 0.00 21 1008.6
20260504193815 22 169 3.2 6.4 0.00 0.00 0.00 20 1008.6
20260504192919 21 200 1.6 3.2 0.00 0.00 0.00 22 1008.8
20260504191803 21 286 1.6 4.8 0.00 0.00 0.00 21 1008.9
20260504190903 21 290 1.6 8.0 0.00 0.00 0.00 19 1009.0
20260504190003 21 279 3.2 9.7 0.00 0.00 0.00 18 1009.2
20260504185403 22 271 3.2 8.0 0.00 0.00 0.00 21 1009.1
20260504184503 21 278 4.8 14.5 0.00 0.00 0.00 21 1009.2
20260504183603 21 283 4.8 11.3 0.00 0.00 0.00 21 1009.4
20260504182703 21 317 3.2 11.3 0.00 0.00 0.00 22 1009.4
20260504181803 20 298 1.6 9.7 0.00 0.00 0.00 25 1009.6
20260504180903 20 283 4.8 12.9 0.00 0.00 0.00 22 1009.8
20260504180003 20 296 6.4 16.1 0.00 0.00 0.00 21 1009.7
20260504175403 20 285 6.4 19.3 0.00 0.00 0.00 22 1009.8
20260504174503 20 277 6.4 14.5 0.00 0.00 0.00 23 1009.8
20260504173603 20 275 4.8 17.7 0.00 0.00 0.00 24 1009.9
20260504172918 20 28 1.6 8.0 0.00 0.00 0.00 24 1010.0
20260504171803 20 285 3.2 11.3 0.00 0.00 0.00 24 1010.0
20260504170903 20 284 4.8 11.3 0.00 0.00 0.00 23 1010.4